Météo par heure à Juquitiba

Ce jour, 17 Juin, Jeudi

Heure Température Précipitation Vent Pression Humidité
00:00 +13°C° 0.2 mm 1 m/s 702 mmHg 98%
01:00 +13°C° 0.1 mm 1 m/s 702 mmHg 97%
02:00 +13°C° 0.1 mm 1 m/s 702 mmHg 97%
03:00 +13°C° 0 mm 1 m/s 702 mmHg 97%
04:00 +13°C° 0.1 mm 1 m/s 702 mmHg 97%
05:00 +13°C° 0.1 mm 1 m/s 702 mmHg 97%
06:00 +13°C° 0.1 mm 1 m/s 702 mmHg 98%
07:00 +13°C° 0.1 mm 1 m/s 702 mmHg 97%
08:00 +14°C° 0.1 mm 1 m/s 703 mmHg 95%
09:00 +14°C° 0.1 mm 1 m/s 703 mmHg 94%
10:00 +15°C° 0.2 mm 1 m/s 703 mmHg 89%
11:00 +16°C° 0.2 mm 1 m/s 703 mmHg 84%
12:00 +18°C° 0.2 mm 1 m/s 704 mmHg 79%
13:00 +16°C° 0.2 mm 2 m/s 703 mmHg 81%
14:00 +16°C° 0.2 mm 2 m/s 703 mmHg 82%
15:00 +16°C° 0.2 mm 2 m/s 702 mmHg 83%
16:00 +15°C° 0.1 mm 2 m/s 703 mmHg 88%
17:00 +14°C° 0.1 mm 1 m/s 703 mmHg 92%
18:00 +13°C° 0.1 mm 1 m/s 703 mmHg 97%
19:00 +13°C° 0.1 mm 1 m/s 703 mmHg 97%
20:00 +13°C° 0.1 mm 1 m/s 703 mmHg 97%
21:00 +13°C° 0.1 mm 1 m/s 704 mmHg 97%
22:00 +13°C° 0 mm 1 m/s 704 mmHg 97%
23:00 +13°C° 0 mm 1 m/s 704 mmHg 97%

Demain, 18 Juin, Vendredi

Heure Température Précipitation Vent Pression Humidité
00:00 +13°C° 0 mm 1 m/s 703 mmHg 97%
01:00 +13°C° 0 mm 1 m/s 703 mmHg 98%
02:00 +13°C° 0 mm 1 m/s 703 mmHg 98%
03:00 +13°C° 0 mm 1 m/s 703 mmHg 98%
04:00 +13°C° 0 mm 1 m/s 703 mmHg 98%
05:00 +13°C° 0 mm 1 m/s 703 mmHg 98%
06:00 +13°C° 0 mm 1 m/s 703 mmHg 97%
07:00 +13°C° 0 mm 1 m/s 704 mmHg 96%
08:00 +14°C° 0 mm 1 m/s 704 mmHg 94%
09:00 +14°C° 0 mm 1 m/s 704 mmHg 92%
10:00 +14°C° 0 mm 1 m/s 704 mmHg 91%
11:00 +15°C° 0 mm 1 m/s 704 mmHg 91%
12:00 +15°C° 0 mm 1 m/s 704 mmHg 90%
13:00 +15°C° 0 mm 1 m/s 704 mmHg 91%
14:00 +14°C° 0 mm 1 m/s 704 mmHg 93%
15:00 +14°C° 0 mm 1 m/s 703 mmHg 94%
16:00 +14°C° 0 mm 1 m/s 703 mmHg 96%
17:00 +14°C° 0 mm 1 m/s 704 mmHg 97%
18:00 +13°C° 0 mm 1 m/s 704 mmHg 98%
19:00 +13°C° 0.1 mm 1 m/s 704 mmHg 98%
20:00 +13°C° 0.1 mm 1 m/s 704 mmHg 98%
21:00 +14°C° 0.1 mm 1 m/s 704 mmHg 98%
22:00 +14°C° 0.6 mm 1 m/s 704 mmHg 98%
23:00 +14°C° 0.6 mm 1 m/s 704 mmHg 98%

Après-demain, 19 Juin, Samedi

Heure Température Précipitation Vent Pression Humidité
00:00 +14°C° 0.6 mm 1 m/s 704 mmHg 98%
01:00 +13°C° 0 mm 1 m/s 703 mmHg 99%
02:00 +13°C° 0 mm 1 m/s 703 mmHg 99%
03:00 +12°C° 0 mm 0 m/s 702 mmHg 99%
04:00 +13°C° 0 mm 1 m/s 702 mmHg 98%
05:00 +13°C° 0 mm 1 m/s 702 mmHg 98%
06:00 +14°C° 0 mm 1 m/s 702 mmHg 98%
07:00 +14°C° 0.1 mm 1 m/s 702 mmHg 97%
08:00 +14°C° 0.1 mm 1 m/s 702 mmHg 97%
09:00 +15°C° 0.1 mm 1 m/s 702 mmHg 96%
10:00 +16°C° 0 mm 1 m/s 702 mmHg 91%
11:00 +18°C° 0 mm 1 m/s 702 mmHg 86%
12:00 +19°C° 0 mm 1 m/s 702 mmHg 81%
13:00 +19°C° 0 mm 1 m/s 701 mmHg 81%
14:00 +19°C° 0 mm 1 m/s 701 mmHg 81%
15:00 +19°C° 0 mm 1 m/s 700 mmHg 81%
16:00 +18°C° 0.1 mm 1 m/s 700 mmHg 86%
17:00 +16°C° 0.1 mm 1 m/s 701 mmHg 92%
18:00 +15°C° 0.1 mm 1 m/s 701 mmHg 98%
19:00 +15°C° 0.3 mm 1 m/s 701 mmHg 98%
20:00 +15°C° 0.3 mm 1 m/s 702 mmHg 98%
21:00 +15°C° 0.3 mm 1 m/s 702 mmHg 98%
22:00 +15°C° 0.5 mm 1 m/s 702 mmHg 98%
23:00 +15°C° 0.5 mm 1 m/s 701 mmHg 98%

20 Juin, Dimanche

Heure Température Précipitation Vent Pression Humidité
00:00 +14°C° 0.5 mm 0 m/s 701 mmHg 99%
01:00 +14°C° 0.4 mm 1 m/s 700 mmHg 98%
02:00 +14°C° 0.4 mm 1 m/s 700 mmHg 98%
03:00 +14°C° 0.4 mm 1 m/s 700 mmHg 98%
04:00 +14°C° 0.1 mm 1 m/s 700 mmHg 97%
05:00 +14°C° 0.1 mm 1 m/s 700 mmHg 97%
06:00 +14°C° 0.1 mm 1 m/s 700 mmHg 97%
07:00 +15°C° 0 mm 1 m/s 701 mmHg 96%
08:00 +15°C° 0 mm 1 m/s 701 mmHg 94%
09:00 +15°C° 0 mm 1 m/s 702 mmHg 93%
10:00 +18°C° 0 mm 1 m/s 702 mmHg 87%
11:00 +19°C° 0 mm 1 m/s 702 mmHg 80%
12:00 +20°C° 0 mm 1 m/s 702 mmHg 74%
13:00 +19°C° 0 mm 2 m/s 702 mmHg 74%
14:00 +19°C° 0 mm 2 m/s 701 mmHg 73%
15:00 +19°C° 0 mm 2 m/s 701 mmHg 73%
16:00 +18°C° 0 mm 1 m/s 701 mmHg 81%
17:00 +16°C° 0 mm 1 m/s 701 mmHg 89%
18:00 +15°C° 0 mm 1 m/s 702 mmHg 96%
19:00 +14°C° 0 mm 1 m/s 702 mmHg 97%
20:00 +14°C° 0 mm 1 m/s 702 mmHg 97%
21:00 +13°C° 0 mm 1 m/s 703 mmHg 98%
22:00 +13°C° 0 mm 1 m/s 703 mmHg 97%
23:00 +13°C° 0 mm 1 m/s 703 mmHg 96%

21 Juin, Lundi

Heure Température Précipitation Vent Pression Humidité
00:00 +13°C° 0 mm 1 m/s 703 mmHg 95%
01:00 +13°C° 0 mm 1 m/s 702 mmHg 96%
02:00 +13°C° 0 mm 1 m/s 702 mmHg 97%
03:00 +11°C° 0 mm 0 m/s 702 mmHg 97%
04:00 +11°C° 0 mm 0 m/s 702 mmHg 97%
05:00 +13°C° 0 mm 1 m/s 702 mmHg 97%
06:00 +13°C° 0 mm 1 m/s 702 mmHg 97%
07:00 +14°C° 0 mm 1 m/s 702 mmHg 92%
08:00 +15°C° 0 mm 1 m/s 703 mmHg 88%
09:00 +16°C° 0 mm 1 m/s 703 mmHg 84%
10:00 +18°C° 0 mm 1 m/s 703 mmHg 78%
11:00 +19°C° 0 mm 1 m/s 703 mmHg 72%
12:00 +20°C° 0 mm 1 m/s 703 mmHg 66%
13:00 +20°C° 0 mm 1 m/s 702 mmHg 69%
14:00 +20°C° 0 mm 1 m/s 702 mmHg 73%
15:00 +19°C° 0 mm 1 m/s 701 mmHg 76%
16:00 +18°C° 0 mm 1 m/s 701 mmHg 83%
17:00 +16°C° 0 mm 1 m/s 701 mmHg 90%
18:00 +15°C° 0 mm 1 m/s 701 mmHg 97%
19:00 +15°C° 0 mm 1 m/s 701 mmHg 97%
20:00 +15°C° 0 mm 1 m/s 701 mmHg 97%
21:00 +15°C° 0 mm 1 m/s 701 mmHg 97%
22:00 +14°C° 0 mm 1 m/s 701 mmHg 97%
23:00 +13°C° 0 mm 0 m/s 701 mmHg 97%

22 Juin, Mardi

Heure Température Précipitation Vent Pression Humidité
00:00 +13°C° 0 mm 0 m/s 701 mmHg 97%
01:00 +13°C° 0.1 mm 0 m/s 701 mmHg 97%
02:00 +13°C° 0.1 mm 0 m/s 701 mmHg 97%
03:00 +12°C° 0.1 mm 0 m/s 701 mmHg 97%
04:00 +14°C° 0.2 mm 1 m/s 700 mmHg 97%
05:00 +14°C° 0.2 mm 1 m/s 700 mmHg 97%
06:00 +14°C° 0.2 mm 1 m/s 700 mmHg 97%
07:00 +15°C° 0.3 mm 1 m/s 701 mmHg 95%
08:00 +16°C° 0.3 mm 1 m/s 701 mmHg 92%
09:00 +18°C° 0.3 mm 1 m/s 702 mmHg 90%
10:00 +20°C° 0.1 mm 1 m/s 702 mmHg 83%
11:00 +22°C° 0.1 mm 1 m/s 702 mmHg 76%
12:00 +24°C° 0.1 mm 1 m/s 702 mmHg 68%
13:00 +24°C° 0 mm 1 m/s 702 mmHg 68%
14:00 +24°C° 0 mm 1 m/s 701 mmHg 68%
15:00 +24°C° 0 mm 1 m/s 701 mmHg 67%
16:00 +22°C° 0.3 mm 1 m/s 701 mmHg 77%
17:00 +18°C° 0.3 mm 0 m/s 701 mmHg 86%
18:00 +16°C° 0.3 mm 0 m/s 701 mmHg 96%
19:00 +16°C° 0.2 mm 0 m/s 701 mmHg 97%
20:00 +18°C° 0.2 mm 1 m/s 701 mmHg 97%
21:00 +16°C° 0.2 mm 1 m/s 702 mmHg 98%
22:00 +16°C° 0 mm 1 m/s 702 mmHg 98%
23:00 +16°C° 0 mm 1 m/s 702 mmHg 98%
Voir plus

Nous avons besoin de votre consentement

Meteoprog et ses fournisseurs de services peuvent stocker et accéder à des données personnelles telles que des cookies, des identifiants d'appareils ou d'autres technologies similaires sur votre appareil et traiter ces données pour personnaliser le contenu et les publicités, ainsi que pour fournir des fonctionnalités de médias sociaux et analyser le trafic.

  • Stocker et/ou accéder à des informations sur votre appareil

    Des cookies, des identifiants d'appareils ou d'autres informations peuvent être stockés ou accessibles sur votre appareil aux fins indiquées ci-dessus.

  • Annonces et contenus personnalisés, mesure des annonces et des contenus, connaissance de l'audience et développement de produits

    Les annonces et le contenu peuvent être personnalisés en fonction d'un profil. D'autres données peuvent être ajoutées pour mieux personnaliser les annonces et le contenu. Les performances des publicités et du contenu peuvent être mesurées. Il est possible d'obtenir des informations sur le public qui a vu les publicités et le contenu. Ces données peuvent être utilisées pour développer ou améliorer l'expérience de l'utilisateur, les systèmes et les logiciels.

En cliquant sur "J'accepte", vous autorisez l'utilisation de cookies, des identifiants d'appareils, des balises web ou d'autres technologies similaires. Vos paramètres peuvent être modifiés dans le navigateur de votre appareil.

Dans certains cas, des intérêts légitimes peuvent être invoqués plutôt qu'un consentement. Vous pouvez en savoir plus à ce sujet dans notre Politique de confidentialité et de cookies.